GW4629 Weather Reports


time (UTC)temp
C
wind
direction
speed
KPH
gust
KPH
rain 1hr
cm
rain 24hr
cm
rain mn
cm
humidity
%
barometer
mb
20260506155643 0 205 0.0 0.0 0.00 0.00 0.00 99 1020.1
20260506153703 0 150 0.0 0.0 0.00 0.00 0.00 99 1019.9
20260506153200 0 150 0.0 0.0 0.00 0.00 0.00 99 1019.9
20260506152657 0 150 0.0 0.0 0.00 0.00 0.00 99 1019.9
20260506152154 0 207 1.6 1.6 0.00 0.00 0.00 99 1019.9
20260506151653 0 207 1.6 1.6 0.00 0.00 0.00 99 1019.9
20260506151149 0 165 1.6 1.6 0.00 0.00 0.00 99 1019.8
20260506150646 0 165 1.6 1.6 0.00 0.00 0.00 99 1019.8
20260506150143 -1 193 1.6 1.6 0.00 0.00 0.00 99 1019.7
20260506145640 -1 193 1.6 1.6 0.00 0.00 0.00 99 1019.7
20260506145137 -1 254 3.2 3.2 0.00 0.00 0.00 99 1019.6
20260506144635 -1 254 3.2 3.2 0.00 0.00 0.00 99 1019.6
20260506143624 -2 226 1.6 1.6 0.00 0.00 0.00 99 1019.8
20260506143121 -2 226 1.6 1.6 0.00 0.00 0.00 99 1019.8
20260506142620 -2 225 1.6 3.2 0.00 0.00 0.00 99 1019.8
20260506142118 -2 225 1.6 3.2 0.00 0.00 0.00 99 1019.8
20260506141615 -3 225 1.6 3.2 0.00 0.00 0.00 99 1019.7
20260506141113 -3 225 1.6 3.2 0.00 0.00 0.00 99 1019.7
20260506140610 -5 225 3.2 3.2 0.00 0.00 0.00 99 1019.4
20260506140107 -5 225 3.2 3.2 0.00 0.00 0.00 99 1019.4
20260506135604 -5 225 1.6 3.2 0.00 0.00 0.00 99 1019.3
20260506135100 -5 225 1.6 3.2 0.00 0.00 0.00 99 1019.3
20260506134557 -5 225 3.2 3.2 0.00 0.00 0.00 99 1019.6
20260506134053 -5 225 3.2 3.2 0.00 0.00 0.00 99 1019.6
20260506133550 -5 225 4.8 4.8 0.00 0.00 0.00 99 1019.1
20260506133047 -5 225 4.8 4.8 0.00 0.00 0.00 99 1019.1
20260506132544 -5 225 3.2 4.8 0.00 0.00 0.00 99 1018.9
20260506132042 -5 225 3.2 4.8 0.00 0.00 0.00 99 1018.9
20260506131538 -5 225 6.4 6.4 0.00 0.00 0.00 99 1018.8
20260506131035 -5 225 6.4 6.4 0.00 0.00 0.00 99 1018.8
20260506130532 -5 225 8.0 9.7 0.00 0.00 0.00 99 1018.6
20260506130029 -5 225 8.0 9.7 0.00 0.00 0.00 99 1018.6
20260506125527 -5 225 6.4 6.4 0.00 0.00 0.00 99 1018.3
20260506125025 -5 225 6.4 6.4 0.00 0.00 0.00 99 1018.3
20260506124523 -5 225 4.8 6.4 0.00 0.00 0.00 99 1018.3
20260506124020 -5 225 4.8 6.4 0.00 0.00 0.00 99 1018.3
20260506123518 -5 225 1.6 3.2 0.00 0.00 0.00 99 1018.4
20260506123016 -5 225 1.6 3.2 0.00 0.00 0.00 99 1018.4
20260506122512 -5 225 3.2 3.2 0.00 0.00 0.00 99 1017.9
20260506122011 -5 225 3.2 3.2 0.00 0.00 0.00 99 1017.9
20260506121508 -5 225 1.6 1.6 0.00 0.00 0.00 99 1018.3
20260506121004 -5 225 1.6 1.6 0.00 0.00 0.00 99 1018.3
20260506120502 -5 225 0.0 0.0 0.00 0.00 0.00 99 1018.1
20260506115959 -5 225 0.0 0.0 0.00 0.00 0.00 99 1018.1
20260506115456 -5 225 1.6 1.6 0.00 0.00 0.00 99 1017.9
20260506114955 -5 225 1.6 1.6 0.00 0.00 0.00 99 1017.9
20260506114452 -5 225 0.0 0.0 0.00 0.00 0.00 99 1018.1
20260506113950 -5 225 0.0 0.0 0.00 0.00 0.00 99 1018.1
20260506113448 -5 225 0.0 0.0 0.00 0.00 0.00 99 1018.1
20260506112944 -5 225 0.0 0.0 0.00 0.00 0.00 99 1018.1
20260506112442 -5 225 3.2 3.2 0.00 0.00 0.00 99 1017.8
20260506111939 -5 225 3.2 3.2 0.00 0.00 0.00 99 1017.8
20260506111437 -5 225 0.0 0.0 0.00 0.00 0.00 99 1017.6
20260506110934 -5 225 0.0 0.0 0.00 0.00 0.00 99 1017.6
20260506110432 -5 225 0.0 0.0 0.00 0.00 0.00 99 1017.7
20260506105928 -5 225 0.0 0.0 0.00 0.00 0.00 99 1017.7
20260506105424 -5 225 0.0 0.0 0.00 0.00 0.00 99 1017.7
20260506104922 -5 225 0.0 0.0 0.00 0.00 0.00 99 1017.7
20260506104420 -5 225 0.0 0.0 0.00 0.00 0.00 99 1017.6
20260506103918 -5 225 0.0 0.0 0.00 0.00 0.00 99 1017.6
20260506103415 -5 225 1.6 3.2 0.00 0.00 0.00 99 1017.4
20260506102912 -5 225 1.6 3.2 0.00 0.00 0.00 99 1017.4
20260506102410 -5 225 3.2 3.2 0.00 0.00 0.00 99 1017.4
20260506101907 -5 225 3.2 3.2 0.00 0.00 0.00 99 1017.4
20260506101403 -5 225 0.0 0.0 0.00 0.00 0.00 99 1017.2
20260506100900 -5 225 0.0 0.0 0.00 0.00 0.00 99 1017.2
20260506100359 -5 225 1.6 3.2 0.00 0.00 0.00 99 1017.6
20260506095856 -5 225 1.6 3.2 0.00 0.00 0.00 99 1017.6
20260506095354 -5 225 0.0 0.0 0.00 0.00 0.00 99 1017.4
20260506094850 -5 225 0.0 0.0 0.00 0.00 0.00 99 1017.4
20260506094348 -5 225 1.6 1.6 0.00 0.00 0.00 99 1017.4
20260506093841 -5 225 1.6 1.6 0.00 0.00 0.00 99 1017.4
20260506093338 -5 225 3.2 4.8 0.00 0.00 0.00 99 1017.7
20260506092836 -5 225 3.2 4.8 0.00 0.00 0.00 99 1017.7
20260506092334 -5 225 3.2 3.2 0.00 0.00 0.00 99 1017.4
20260506091830 -5 225 3.2 3.2 0.00 0.00 0.00 99 1017.4
20260506091328 -5 225 6.4 9.7 0.00 0.00 0.00 99 1017.3
20260506090825 -5 225 6.4 9.7 0.00 0.00 0.00 99 1017.3
20260506090322 -5 225 3.2 6.4 0.00 0.00 0.00 99 1017.4
20260506085819 -5 225 3.2 6.4 0.00 0.00 0.00 99 1017.4
20260506085315 -5 225 4.8 6.4 0.00 0.00 0.00 99 1017.3
20260506084812 -5 225 4.8 6.4 0.00 0.00 0.00 99 1017.3
20260506084308 -5 224 9.7 14.5 0.00 0.00 0.00 99 1017.4
20260506083805 -5 224 9.7 14.5 0.00 0.00 0.00 99 1017.4
20260506083303 -5 223 8.0 9.7 0.00 0.00 0.00 99 1017.2
20260506082800 -5 223 8.0 9.7 0.00 0.00 0.00 99 1017.2
20260506082256 -4 223 4.8 4.8 0.00 0.00 0.00 99 1017.6
20260506081753 -4 223 4.8 4.8 0.00 0.00 0.00 99 1017.6
20260506081251 -4 223 4.8 4.8 0.00 0.00 0.00 99 1017.7
20260506080749 -4 223 4.8 4.8 0.00 0.00 0.00 99 1017.7
20260506080245 -4 223 3.2 4.8 0.00 0.00 0.00 99 1017.6
20260506073228 -4 223 3.2 3.2 0.00 0.00 0.00 99 1017.7
20260506072725 -4 223 3.2 3.2 0.00 0.00 0.00 99 1017.7
20260506072223 -4 223 3.2 3.2 0.00 0.00 0.00 99 1017.7
20260506071720 -4 223 3.2 3.2 0.00 0.00 0.00 99 1017.7
20260506071218 -4 223 6.4 6.4 0.00 0.00 0.00 99 1017.7
20260506070715 -4 223 6.4 6.4 0.00 0.00 0.00 99 1017.7
20260506070212 -4 223 6.4 6.4 0.00 0.00 0.00 99 1017.8
20260506062149 -4 223 4.8 6.4 0.00 0.00 0.00 99 1017.8
20260506061644 -4 223 4.8 6.4 0.00 0.00 0.00 99 1017.8
20260506061143 -4 223 6.4 6.4 0.00 0.00 0.00 99 1017.7
20260506060641 -4 223 6.4 6.4 0.00 0.00 0.00 99 1017.7
20260506060138 -4 223 8.0 11.3 0.00 0.05 0.05 99 1017.3
20260506051109 -4 170 14.5 16.1 0.00 0.05 0.05 99 1016.9
20260506050608 -4 170 14.5 16.1 0.00 0.05 0.05 99 1016.9
20260506050104 -3 144 14.5 17.7 0.00 0.05 0.05 99 1016.7
20260506045058 -3 143 0.0 0.0 0.00 0.05 0.05 99 1016.9
20260506044556 -3 143 0.0 0.0 0.00 0.05 0.05 99 1016.9
20260506044052 -3 143 0.0 0.0 0.00 0.05 0.05 99 1016.9
20260506043549 -3 143 0.0 0.0 0.00 0.05 0.05 99 1016.9
20260506043047 -3 143 0.0 0.0 0.00 0.05 0.05 99 1016.9
20260506042546 -3 143 0.0 0.0 0.00 0.05 0.05 99 1016.9
20260506042043 -3 143 0.0 0.0 0.00 0.05 0.05 99 1016.7
20260506041543 -3 143 0.0 0.0 0.00 0.05 0.05 99 1016.7
20260506041039 -3 143 0.0 0.0 0.00 0.05 0.05 99 1016.8
20260506040537 -3 143 0.0 0.0 0.00 0.05 0.05 99 1016.8
20260506040032 -3 143 0.0 0.0 0.00 0.05 0.05 99 1017.1
20260506035530 -3 143 0.0 0.0 0.00 0.05 0.05 99 1017.1
20260506035027 -3 143 0.0 0.0 0.00 0.05 0.05 99 1016.3
20260506034524 -3 143 0.0 0.0 0.00 0.05 0.05 99 1016.4
20260506034021 -3 143 0.0 0.0 0.00 0.05 0.05 99 1016.4
20260506033518 -3 143 0.0 0.0 0.00 0.05 0.05 99 1016.4
20260506033015 -3 143 0.0 0.0 0.00 0.05 0.05 99 1016.4
20260506032512 -3 143 0.0 0.0 0.00 0.05 0.05 99 1016.2
20260506032009 -3 143 0.0 0.0 0.00 0.05 0.05 99 1016.2
20260506031507 -3 143 0.0 0.0 0.00 0.05 0.05 99 1016.3
20260506031004 -3 143 0.0 0.0 0.00 0.05 0.05 99 1016.3
20260506030502 -3 143 0.0 0.0 0.00 0.05 0.05 99 1016.2
20260506025959 -3 143 0.0 0.0 0.00 0.05 0.05 99 1016.2
20260506025455 -3 143 0.0 0.0 0.00 0.05 0.05 99 1015.9
20260506024951 -3 143 0.0 0.0 0.00 0.05 0.05 99 1015.9
20260506024448 -3 143 0.0 0.0 0.00 0.05 0.05 99 1015.8
20260506023944 -3 143 0.0 0.0 0.00 0.05 0.05 99 1015.8
20260506023441 -3 143 0.0 0.0 0.00 0.05 0.05 99 1015.9
20260506022938 -3 143 0.0 0.0 0.00 0.05 0.05 99 1015.9
20260506022436 -3 143 0.0 0.0 0.00 0.05 0.05 99 1015.6
20260506021934 -3 143 0.0 0.0 0.00 0.05 0.05 99 1015.6
20260506021431 -3 143 0.0 0.0 0.00 0.05 0.05 99 1015.2
20260506020927 -3 143 0.0 0.0 0.00 0.05 0.05 99 1015.2
20260506020426 -3 143 0.0 0.0 0.00 0.05 0.05 99 1015.2
20260506015922 -3 143 0.0 0.0 0.00 0.05 0.05 99 1015.2
20260506015420 -2 143 0.0 0.0 0.00 0.05 0.05 99 1015.1
20260506014916 -2 143 0.0 0.0 0.00 0.05 0.05 99 1015.1
20260506014413 -2 143 0.0 0.0 0.00 0.05 0.05 99 1014.9
20260506013910 -2 143 0.0 0.0 0.00 0.05 0.05 99 1014.9
20260506013408 -2 143 0.0 0.0 0.00 0.05 0.05 99 1015.1
20260506012904 -2 143 0.0 0.0 0.00 0.05 0.05 99 1015.1
20260506012401 -3 143 0.0 0.0 0.00 0.05 0.05 99 1014.7
20260506011858 -3 143 0.0 0.0 0.00 0.05 0.05 99 1014.7
20260506011355 -3 143 0.0 0.0 0.00 0.05 0.05 99 1014.7
20260506010852 -3 143 0.0 0.0 0.00 0.05 0.05 99 1014.7
20260506010350 -3 143 0.0 0.0 0.00 0.05 0.05 99 1014.6
20260506005847 -3 143 0.0 0.0 0.00 0.05 0.05 99 1014.6
20260506005344 -3 143 0.0 0.0 0.00 0.05 0.05 99 1014.8
20260506004839 -3 143 0.0 0.0 0.00 0.05 0.05 99 1014.8
20260506004337 -2 143 0.0 0.0 0.00 0.05 0.05 99 1014.8
20260506003833 -2 143 0.0 0.0 0.00 0.05 0.05 99 1014.8
20260506003330 -3 143 0.0 0.0 0.00 0.05 0.05 99 1014.7
20260506002826 -3 143 0.0 0.0 0.00 0.05 0.05 99 1014.7
20260506002323 -2 143 0.0 0.0 0.00 0.05 0.05 99 1014.7
20260506001818 -2 143 0.0 0.0 0.00 0.05 0.05 99 1014.7
20260506001316 -2 143 0.0 0.0 0.00 0.05 0.05 99 1014.6
20260506000813 -2 143 0.0 0.0 0.00 0.05 0.05 99 1014.6
20260506000311 -2 143 0.0 0.0 0.00 0.05 0.05 99 1014.6
20260505235807 -2 143 0.0 0.0 0.00 0.05 0.05 99 1014.6
20260505235305 -3 143 0.0 0.0 0.00 0.05 0.05 99 1014.6
20260505234801 -3 143 0.0 0.0 0.00 0.05 0.05 99 1014.6
20260505234259 -2 143 0.0 0.0 0.00 0.05 0.05 99 1014.7
20260505233755 -2 143 0.0 0.0 0.00 0.05 0.05 99 1014.7
20260505233254 -2 143 0.0 0.0 0.00 0.05 0.05 99 1014.6
20260505232750 -2 143 0.0 0.0 0.00 0.05 0.05 99 1014.6
20260505232247 -2 143 0.0 0.0 0.00 0.05 0.05 99 1014.6
20260505231743 -2 143 0.0 0.0 0.00 0.05 0.05 99 1014.6
20260505231242 -2 143 0.0 0.0 0.00 0.05 0.05 99 1014.3
20260505230740 -2 143 0.0 0.0 0.00 0.05 0.05 99 1014.3
20260505230237 -1 143 0.0 0.0 0.00 0.05 0.05 99 1014.2
20260505225733 -1 143 0.0 0.0 0.00 0.05 0.05 99 1014.2
20260505225231 0 143 0.0 0.0 0.00 0.05 0.05 99 1014.3
20260505224726 0 143 0.0 0.0 0.00 0.05 0.05 99 1014.3
20260505224224 0 143 0.0 0.0 0.00 0.05 0.05 99 1014.4
20260505223722 0 143 0.0 0.0 0.00 0.05 0.05 99 1014.4
20260505223218 -1 142 0.0 0.0 0.00 0.05 0.05 99 1014.3
20260505222714 -1 142 0.0 0.0 0.00 0.05 0.05 99 1014.3
20260505222210 -2 85 0.0 0.0 0.00 0.05 0.05 99 1014.4
20260505221707 -2 85 0.0 0.0 0.00 0.05 0.05 99 1014.4
20260505221204 -1 129 0.0 0.0 0.00 0.05 0.05 99 1014.1
20260505220701 -1 129 0.0 0.0 0.00 0.05 0.05 99 1014.1
20260505220158 -2 148 0.0 0.0 0.00 0.05 0.05 99 1014.4
20260505215655 -2 148 0.0 0.0 0.00 0.05 0.05 99 1014.4
20260505215153 -2 181 1.6 1.6 0.00 0.05 0.05 99 1014.4
20260505214651 -2 181 1.6 1.6 0.00 0.05 0.05 99 1014.4
20260505214149 -3 225 3.2 3.2 0.00 0.05 0.05 99 1014.2
20260505213646 -3 225 3.2 3.2 0.00 0.05 0.05 99 1014.2
20260505213143 -3 241 1.6 1.6 0.00 0.05 0.05 99 1014.4
20260505212638 -3 241 1.6 1.6 0.00 0.05 0.05 99 1014.4
20260505212136 -3 242 1.6 3.2 0.00 0.05 0.05 99 1014.2
20260505211633 -3 242 1.6 3.2 0.00 0.05 0.05 99 1014.2
20260505211130 -3 225 4.8 4.8 0.00 0.05 0.05 99 1014.4
20260505210627 -3 225 4.8 4.8 0.00 0.05 0.05 99 1014.4
20260505210124 -3 191 6.4 9.7 0.00 0.05 0.05 99 1014.4
20260505205621 -3 191 6.4 9.7 0.00 0.05 0.05 99 1014.4
20260505205119 -3 215 8.0 11.3 0.00 0.05 0.05 99 1014.2
20260505204616 -3 215 8.0 11.3 0.00 0.05 0.05 99 1014.2
20260505204113 -3 287 4.8 11.3 0.00 0.05 0.05 99 1013.9
20260505203604 -3 287 4.8 11.3 0.00 0.05 0.05 99 1013.9
20260505203101 -3 194 4.8 6.4 0.00 0.05 0.05 99 1014.4
20260505202557 -3 194 4.8 6.4 0.00 0.05 0.05 99 1014.4
20260505202053 -3 243 6.4 6.4 0.00 0.05 0.05 99 1014.7
20260505201550 -3 243 6.4 6.4 0.00 0.05 0.05 99 1014.7
20260505201048 -3 255 6.4 9.7 0.00 0.05 0.05 99 1014.6
20260505200545 -3 255 6.4 9.7 0.00 0.05 0.05 99 1014.6
20260505200041 -2 249 8.0 9.7 0.00 0.05 0.05 99 1014.7
20260505195538 -2 249 8.0 9.7 0.00 0.05 0.05 99 1014.7
20260505195035 -3 273 8.0 9.7 0.00 0.05 0.05 99 1014.6
20260505194532 -3 273 8.0 9.7 0.00 0.05 0.05 99 1014.6
20260505194027 -3 255 8.0 11.3 0.00 0.05 0.05 99 1014.8
20260505193525 -3 255 8.0 11.3 0.00 0.05 0.05 99 1014.8
20260505193022 -3 255 6.4 6.4 0.00 0.05 0.05 99 1014.8
20260505192520 -3 255 6.4 6.4 0.00 0.05 0.05 99 1014.8
20260505192018 -3 321 8.0 9.7 0.00 0.05 0.05 99 1014.7
20260505191516 -3 321 8.0 9.7 0.00 0.05 0.05 99 1014.7
20260505191014 -3 222 6.4 9.7 0.00 0.05 0.05 99 1014.8
20260505190508 -3 222 6.4 9.7 0.00 0.05 0.05 99 1014.8
20260505190004 -3 300 8.0 12.9 0.00 0.05 0.05 99 1014.6
20260505185501 -3 300 8.0 12.9 0.00 0.05 0.05 99 1014.6
20260505184957 -3 221 19.3 24.1 0.00 0.05 0.05 99 1014.3
20260505184454 -3 221 19.3 24.1 0.00 0.05 0.05 99 1014.3
20260505183950 -1 142 0.0 0.0 0.00 0.05 0.05 99 1014.8
20260505183448 -1 142 0.0 0.0 0.00 0.05 0.05 99 1014.8
20260505182944 0 142 0.0 0.0 0.00 0.05 0.05 99 1014.8
20260505182442 0 142 0.0 0.0 0.00 0.05 0.05 99 1014.8
20260505181937 0 141 0.0 0.0 0.00 0.05 0.05 99 1014.9
20260505181435 0 141 0.0 0.0 0.00 0.05 0.05 99 1014.9
20260505180932 -1 140 0.0 0.0 0.00 0.05 0.05 99 1015.1
20260505180428 -1 140 0.0 0.0 0.00 0.05 0.05 99 1015.1
20260505175925 -1 140 0.0 0.0 0.00 0.05 0.05 99 1015.1
20260505175421 -1 140 0.0 0.0 0.00 0.05 0.05 99 1015.3
20260505174918 -1 140 0.0 0.0 0.00 0.05 0.05 99 1015.3
20260505174415 -1 139 0.0 0.0 0.00 0.05 0.05 99 1015.2
20260505173912 -1 139 0.0 0.0 0.00 0.05 0.05 99 1015.2
20260505173408 0 139 0.0 0.0 0.00 0.05 0.05 99 1015.4
20260505172905 0 139 0.0 0.0 0.00 0.05 0.05 99 1015.4
20260505172403 -1 139 0.0 0.0 0.00 0.05 0.05 99 1015.8
20260505171902 -1 139 0.0 0.0 0.00 0.05 0.05 99 1015.8
20260505171359 -1 139 0.0 0.0 0.00 0.05 0.05 99 1015.6
20260505170856 -1 139 0.0 0.0 0.00 0.05 0.05 99 1015.6
20260505170353 -1 139 0.0 0.0 0.00 0.05 0.05 99 1015.6
20260505165848 -1 139 0.0 0.0 0.00 0.05 0.05 99 1015.6
20260505165344 -1 139 0.0 0.0 0.00 0.05 0.05 99 1015.6
20260505164840 -1 139 0.0 0.0 0.00 0.05 0.05 99 1015.6
20260505164337 0 139 0.0 0.0 0.00 0.05 0.05 99 1015.6
20260505163835 0 139 0.0 0.0 0.00 0.05 0.05 99 1015.6
20260505163328 0 139 0.0 0.0 0.00 0.05 0.05 99 1015.4
20260505162826 0 139 0.0 0.0 0.00 0.05 0.05 99 1015.4
20260505162322 -1 138 0.0 0.0 0.00 0.05 0.05 99 1015.8
20260505161819 -1 138 0.0 0.0 0.00 0.05 0.05 99 1015.8
20260505161317 -1 138 0.0 0.0 0.00 0.05 0.05 99 1015.8
20260505160814 -1 138 0.0 0.0 0.00 0.05 0.05 99 1015.8
20260505160311 -1 138 0.0 0.0 0.00 0.05 0.05 99 1015.7